Regional Weather Roundup
Issued by NWS

Home | Current Version | Previous Version | Graphics & Text | Print | Product List | Glossary On
Versions: 1 2 3 4 5 6 7 8 9 10 11 12 13 14 15 16 17 18 19 20 21 22 23 24 25 26 27 28 29 30 31 32 33 34 35 36 37 38 39 40 41 42 43 44 45 46 47 48 49 50
000
ASUS43 KIND 011659
RWRIN

WEATHER ROUNDUP FOR INDIANA
NATIONAL WEATHER SERVICE INDIANAPOLIS IN
100 PM EDT MON SEP 01 2014

NOTE: "FAIR" INDICATES FEW OR NO CLOUDS BELOW 12,000 FEET WITH NO
SIGNIFICANT WEATHER AND/OR OBSTRUCTIONS TO VISIBILITY.

* - STATION DOES NOT REPORT WEATHER SUCH AS PRECIPITATION OR FOG.

+ - STATION NOT QUALITY CONTROLLED BY THE NATIONAL WEATHER SERVICE.
    USE DATA WITH CAUTION...ESPECIALLY DEWPOINT AND RELATIVE
    HUMIDITY OBSERVATIONS.

INZ001>003-010>013-019-020-011800-
NORTHWEST INDIANA

CITY           SKY/WX    TMP DP  RH WIND       PRES   REMARKS
GARY /AIRPORT/ PTSUNNY   79  72  78 SW14      29.79R FOG
KNOX *+        CLOUDY    77  70  79 S15G23    29.79F
MONTICELLO +   CLOUDY    77  72  86 S12G17    29.82F
VALPARAISO     CLOUDY    76  71  85 SW14G21   29.82R

$$

LMZ046-743>745-011800-
SOUTHERN LAKE MICHIGAN

STATION/POSITION TIME  TEMP WIND        PRES
                       AIR  DIR/SP/G
                 (UTC) (F)  (DEG/KT/KT) (MB)
MICHIGAN CITY    1600   74  170/ 17/ 22   N/A

$$

INZ004-005-014>016-021>024-011800-
NORTH CENTRAL INDIANA

CITY           SKY/WX    TMP DP  RH WIND       PRES   REMARKS
ELKHART        CLOUDY    77  72  83 SW9G17    29.82S
GOSHEN         CLOUDY    80  70  71 S18G24    29.82F
PERU/GRISSOM   CLOUDY    79  75  89 SW18      29.85S
SOUTH BEND     CLOUDY    79  71  76 S16       29.80F
WARSAW +       CLOUDY    79  70  73 SW8G17    29.84F

$$

INZ006>009-017-018-025>027-011800-
NORTHEAST INDIANA

CITY           SKY/WX    TMP DP  RH WIND       PRES   REMARKS
ANGOLA *+      CLOUDY    79  73  83 SW16      29.85R
FORT WAYNE     PTSUNNY   81  71  71 SW20G28   29.86F

$$

INZ028-029-035-036-043>045-051>053-011800-
WEST CENTRAL INDIANA

CITY           SKY/WX    TMP DP  RH WIND       PRES   REMARKS
GREENCASTLE +  CLOUDY    77  72  83 S6G18     29.88S
LAFAYETTE      CLOUDY    77  71  82 S7G21     29.83F
TERRE HAUTE    CLOUDY    80  71  74 S16G25    29.85F

$$

INZ030>032-037>040-046>048-054>057-064-065-011800-
CENTRAL INDIANA

CITY           SKY/WX    TMP DP  RH WIND       PRES   REMARKS
COLUMBUS       PTSUNNY   82  73  74 MISG      29.91F
FRANKFORT +    CLOUDY    79  72  80 S12       29.89R
INDIANAPOLIS   PTSUNNY   81  71  71 S18       29.87F
-EAGLE CREEK   CLOUDY    80  69  69 SW13G25   29.87S
KOKOMO *+      CLOUDY    81  70  69 SW13G25   29.87S
MT COMFORT *+  MOSUNNY   81  73  78 SW14G22   29.89F
SHELBYVILLE    PTSUNNY   82  72  71 SW17      29.89F

$$

INZ033-034-041-042-049-050-058-059-011800-
EAST CENTRAL INDIANA

CITY           SKY/WX    TMP DP  RH WIND       PRES   REMARKS
MUNCIE         PTSUNNY   81  69  67 SW18G30   29.88F

$$

INZ060-061-067>069-081>083-085>088-011800-
SOUTHWEST INDIANA

CITY           SKY/WX    TMP DP  RH WIND       PRES   REMARKS
EVANSVILLE     PTSUNNY   84  72  67 SW24G35   29.94S

$$

INZ062-063-066-070>080-084-089>092-011800-
SOUTH CENTRAL AND SOUTHEAST INDIANA

CITY           SKY/WX    TMP DP  RH WIND       PRES   REMARKS
BLOOMINGTON    LGT RAIN  79  71  76 S16G22    29.90F

$$




USA.gov is the U.S. government's official web portal to all federal, state and local government web resources and services.